Location: Newark
(43.6583°N, 1.6617°E)
Time: 00:49:30
(UTC+00:00)

Vanguard 1 Rocket - Pass Details

Date: 25 August 2019
Orbit: 651 x 4225 km, 34.3° (Epoch: 19 September)

Event Time Altitude Azimuth Distance (km) Brightness Sun altitude
Rises 01:41:54 0° 233° (SW) 3,032 - -30.3°
Reaches altitude 10° 01:44:37 10° 217° (SW) 2,046 - -30.1°
Maximum altitude 01:48:03 22° 164° (SSE) 1,443 - -29.7°
Exits shadow 01:51:19 12° 117° (ESE) 2,117 9.3 -29.4°
Drops below altitude 10° 01:51:54 10° 113° (ESE) 2,315 9.6 -29.4°
Sets 01:55:13 0° 98° (E) 3,561 10.8 -29.0°
